カタログに戻る

STARLINK-11433

運用中通信VLEO
NORAD 62008·PAYLOAD·🇺🇸 United States

打ち上げ Nov 18, 2024 から Vandenberg Space Force Base

Loading…

次のパス (今後24時間)

TLE

最新Source: CelesTrak SupGP

元期: Sep 15, 2026, 02:21 UTC

1 62008C 24213A   26258.09840278 -.00067149  00000+0 -55308-3 0  2589
2 62008  53.1574 187.3722 0001187  88.7921   7.5328 15.69745222    14

AllMySatでSTARLINK-11433をリアルタイム追跡

Download on the App Store